Regional Weather Roundup
Issued by NWS Little Rock, AR

Home | Current Version | Previous Version | Text Only | Print | Product List | Glossary On
Versions: 1 2 3 4 5 6 7 8 9 10 11 12 13 14 15 16 17 18 19 20 21 22 23 24 25 26 27 28 29 30 31 32 33 34 35 36 37 38 39 40 41 42 43 44
000
ASUS44 KLZK 221905
RWRLZK

WEATHER ROUNDUP FOR ARKANSAS
NATIONAL WEATHER SERVICE LITTLE ROCK AR
200 PM CDT FRI SEP 22 2017

NOTE: "FAIR" INDICATES FEW OR NO CLOUDS BELOW 12,000 FEET WITH NO
SIGNIFICANT WEATHER AND/OR OBSTRUCTIONS TO VISIBILITY.

ARZ001-003-010-029-222000-
NORTHWEST ARKANSAS

CITY           SKY/WX    TMP DP  RH WIND       PRES   REMARKS
FAYETTEVILLE   MOSUNNY   85  70  60 S8        30.04F HX  89
FORT SMITH     MOSUNNY   90  68  48 E8        29.98F HX  94
HARRISON       MOSUNNY   90  64  42 S7        30.05F HX  91
BENTONVILLE    SUNNY     86  69  56 S7G17     30.05F HX  90
ROGERS         MOSUNNY   87  68  52 SW14      30.05F HX  90
SILOAM SPGS    MOSUNNY   85  68  56 S10G18    30.04F HX  88
HIGHFILL       MOSUNNY   87  68  52 S13       30.04F HX  90
SPRINGDALE     MOSUNNY   86  68  54 S10       30.06F HX  89
$$

ARZ004-005-016-222000-
NORTH CENTRAL ARKANSAS

CITY           SKY/WX    TMP DP  RH WIND       PRES   REMARKS
BATESVILLE     PTSUNNY  N/A N/A N/A E9        30.02F
FLIPPIN        PTSUNNY   91  67  44 VRB6        N/A  HX  94
MTN HOME       MOSUNNY   90  67  46 VRB3      30.02F HX  93
$$

ARZ040-041-222000-
WEST CENTRAL ARKANSAS

CITY           SKY/WX    TMP DP  RH WIND       PRES   REMARKS
MENA           MOSUNNY   90  68  48 S3        30.03F HX  93
MOUNT IDA      MOSUNNY   91  62  37 VRB6      30.00F HX  91
$$

ARZ009-017-025-026-028-222000-
NORTHEAST ARKANSAS

CITY           SKY/WX    TMP DP  RH WIND       PRES   REMARKS
JONESBORO      MOSUNNY   90  72  55 VRB3      30.01F HX  97
NEWPORT        SUNNY     92  68  45 SW6       30.01F HAZE    HX  96
BLYTHEVILLE    SUNNY     90  70  51 CALM      30.03F HX  95
$$

ARZ022-023-033-042-044-222000-
CENTRAL ARKANSAS

CITY           SKY/WX    TMP DP  RH WIND       PRES   REMARKS
LITTLE ROCK    PTSUNNY   92  64  39 SE9       30.00F HX  93
N LITTLE ROCK    N/A     91  69  47 SE6       30.00F HX  96
JACKSONVILLE   MOSUNNY   93  69  46 SE7       30.00F HX  98
CONWAY           N/A     93  68  43 SW6       29.98F HX  97
SEARCY         SUNNY     94  72  48 E7        30.02F HX 102
HOT SPRINGS    SUNNY     93  66  40 VRB5      30.00F HX  96
RUSSELLVILLE   PTSUNNY   88  69  53 VRB3      29.99F HX  92
CLINTON        PTSUNNY   91  70  49 VRB5G12   30.01F HAZE    HX  97
$$

ARZ036-222000-
EAST ARKANSAS

CITY           SKY/WX    TMP DP  RH WIND       PRES   REMARKS
WEST MEMPHIS   SUNNY     91  69  48 VRB5      30.00F HX  96
$$

ARZ050-053-066-070-073-222000-
SOUTHWEST ARKANSAS

CITY           SKY/WX    TMP DP  RH WIND       PRES   REMARKS
ARKADELPHIA    FAIR      92  72  51 SE8       30.00F HX  99
CAMDEN         MOSUNNY   93  68  43 VRB3      29.99F HX  97
TEXARKANA      MOSUNNY   89  69  51 SW5       29.99F HX  93
EL DORADO      MOSUNNY   92  68  45 E8        30.00F HX  96
DE QUEEN       MOSUNNY   90  71  53 CALM      29.98F HX  96
$$

ARZ056-057-069-222000-
SOUTHEAST ARKANSAS

CITY           SKY/WX    TMP DP  RH WIND       PRES   REMARKS
PINE BLUFF     SUNNY     91  66  43 CALM      30.00F HX  93
STUTTGART      MOSUNNY   93  69  45 S6        30.00F HX  98
MONTICELLO     SUNNY     91  66  43 VRB5      30.00F HX  93

$$






USA.gov is the U.S. government's official web portal to all federal, state and local government web resources and services.